SCP
0 0 0 0 0 0 0 0 0 0 0 0 0 0 0 0 0 0 0 0 0 0 0 0 0 0 0 0 0 0 0 0 0 0 0 0 0 0 0 0 0 0 0
0 0 0 0 0 0 0 0 0 0 0 0 0 0 0 0 0 0 0 0 0 0 0 0 0 0 0 0 0 0 0 0 0 0 0 0 0 0 0 0 0 0 0
0 0 0 0 0 0 0 0 0 0 0 0 0 0 0 0 0 0 0 0 0 0 0 0 0 0 0 0 0 0 0 0 0 0 0 0 0 0 0 0 0 0 0
0 0 0 0 0 0 0 0 0 0 0 0 0 0 0 0 0 0 0 0 0 0 0 0 0 0 0 0 0 0 0 0 0 0 0 0 0 0 0 0 0 0 0
0 0 0 0 0 0 0 0 0 0 0 0 0 0 0 0 0 0 0 0 0 0 0 0 0 0 0 0 0 0 0 0 0 0 0 0 0 0 0 0 0 0 0
0 0 0 0 0 0 0 0 0 0 0 0 0 0 0 0 0 0 0 0 0 -0 0 0 0 0 0 0 0 0 0 0 0 0 0 0 0 0 0 0 0 0 0
0 0 0 0 0 0 0 0 0 0 0 0 0 0 0 0 0 0 0 -0 0 0 0 0 0 0 0 0 0 0 0 0 0 0 0 0 0 0 0 0 0 0 0
0 0 0 0 0 0 0 0 0 0 0 0 0 0 0 0 0 0 -0 -0 0 0 -0 0 0 0 0 0 0 0 0 0 0 0 0 0 0 0 0 0 0 0 0
0 0 0 0 0 0 0 0 0 0 0 0 0 0 0 0 0 0 -0 0 0 -0 -0 0 0 0 0 0 0 0 0 0 0 0 0 0 0 0 0 0 0 0 0
0 0 0 0 0 0 0 0 0 0 0 0 0 0 0 0 0 -0 -0 0 0 0 0 0 0 0 0 0 0 0 0 0 0 0 0 0 0 0 0 0 0 0 0
0 0 0 0 0 0 0 0 0 0 0 0 0 0 0 0 0 0 -0 0 0 0 0 0 0 0 0 0 0 0 0 0 0 0 0 0 0 0 0 0 0 0 0
0 0 0 0 0 0 0 0 0 0 0 0 0 0 0 0 0 0 0 0 0 0 0 0 0 0 0 0 0 0 0 0 0 0 0 0 0 0 0 0 0 0 0
0 0 0 0 0 0 0 0 0 0 0 0 0 0 0 0 0 0 0 0 0 0 0 0 0 0 0 0 0 0 0 0 0 0 0 0 0 0 0 0 0 0 0
0 0 0 0 0 0 0 0 0 0 0 0 0 0 0 0 0 0 0 0 0 0 0 0 0 0 0 0 0 0 0 0 0 0 0 0 0 0 0 0 0 0 0
0 0 0 0 0 0 0 0 0 0 0 0 0 0 0 0 0 0 0 0 0 0 0 0 0 0 0 0 0 0 0 0 0 0 0 0 0 0 0 0 0 0 0
0 0 0 0 0 0 0 0 0 0 0 0 0 0 0 0 0 0 0 0 0 0 0 0 0 0 0 0 0 0 0 0 0 0 0 0 0 0 0 0 0 0 0
-0 0 0 0 0 0 0 0 0 0 0 0 0 0 0 0 0 0 0 0 0 0 0 0 0 0 0 0 0 0 0 0 0 0 0 0 0 0 0 0 0 0 0
-0 -0 0 0 0 0 0 0 0 0 0 0 0 0 0 0 0 0 0 0 0 0 0 0 0 0 0 0 0 0 0 0 0 0 0 0 0 0 0 0 0 0 0
-0 -0 -0 -0 0 0 0 0 0 0 0 0 0 0 0 0 0 0 0 0 0 0 0 0 0 0 0 0 0 0 0 0 0 0 0 0 0 0 0 0 0 0 0
-0 -0 -0 -0 -0 0 0 0 0 0 0 0 0 0 0 0 0 0 0 0 0 0 0 0 0 0 0 0 0 0 0 0 0 0 0 0 0 0 0 0 0 0 0
-0 0 -0 -0 -0 -0 0 0 0 0 0 0 0 0 0 0 0 0 0 0 0 0 0 0 0 0 -0 -0 0 0 0 0 0 0 0 0 0 0 0 0 0 0 0
-0 -0 -0 -0 -0 -0 -0 0 0 0 0 0 0 0 0 0 0 0 0 0 0 0 0 0 -0 -0 -0 -0 0 0 0 0 0 -0 0 0 0 0 0 0 0 0 0
0 0 -0 0 -0 -0 -0 -0 -0 -0 -0 0 0 0 0 0 0 0 0 0 0 0 0 -0 -0 -0 -0 0 0 -0 -0 -0 -0 -0 -0 0 0 0 0 0 0 0 0
0 0 0 0 0 0 0 -0 0 -0 -0 -0 -0 -0 -0 0 0 0 0 0 0 0 0 0 0 -0 0 0 0 -0 -0 -0 -0 -0 -0 -0 -0 0 0 0 0 0 0
0 0 0 0 0 0 0 0 0 0 0 -0 -0 -0 -0 -0 -0 -0 -0 0 0 0 0 0 0 0 -0 -0 -0 0 0 -0 -0 -0 -0 -0 0 0 0 0 0 0 0
0 0 0 0 0 0 0 0 0 0 0 0 0 0 0 -0 -0 -0 0 -0 0 0 0 -0 -0 -0 -0 -0 -0 -0 0 -0 0 -0 -0 -0 -0 0 0 0 -0 0 0
Wind_Speed_500mb
42 39 35 28 37 39 48 44 51 48 53 45 44 49 48 44 44 47 49 47 44 45 46 49 59 46 62 52 54 65 65 45 40 43 43 34 28 37 33 40 41 33 38
39 33 32 34 35 44 46 51 45 47 47 42 38 43 41 45 45 42 42 43 46 50 52 48 47 40 57 43 46 64 66 46 40 48 40 35 35 31 34 30 32 24 27
37 31 36 34 40 46 51 44 48 45 46 44 46 46 48 43 45 43 41 43 44 45 44 49 44 45 41 55 26 53 43 44 46 45 43 45 29 32 39 38 32 25 30
37 37 43 34 42 50 57 48 54 41 44 50 40 39 42 39 42 44 43 41 43 42 42 41 45 41 43 43 45 32 42 45 40 49 44 53 31 39 40 38 35 29 24
36 36 41 38 42 53 65 56 50 46 45 37 34 39 38 37 40 39 42 45 44 44 39 40 44 42 37 38 44 48 33 38 43 46 41 58 31 32 39 36 33 30 34
42 36 40 41 49 57 63 55 54 46 40 37 37 38 37 40 39 41 43 42 42 37 36 32 35 36 36 39 46 44 51 41 39 41 37 50 28 36 41 36 36 34 39
31 39 43 41 54 56 61 56 51 48 47 38 37 40 39 38 36 37 34 33 33 29 28 25 31 35 34 32 49 48 50 48 37 36 44 43 23 32 37 34 32 30 34
50 39 40 43 52 53 61 50 43 40 42 37 38 41 36 33 31 31 23 19 9 19 24 31 31 31 33 32 35 56 45 54 40 37 49 51 23 34 38 31 26 26 30
71 54 36 44 55 55 56 51 47 42 41 40 37 38 32 29 27 27 24 11 7 10 16 26 31 30 33 28 29 48 54 52 43 40 51 22 31 30 36 35 28 24 23
77 55 40 38 46 50 54 51 57 43 39 40 33 29 30 29 27 25 22 15 6 3 9 14 26 29 30 27 34 41 52 56 42 44 62 24 31 18 28 41 27 26 33
71 53 42 34 45 49 51 49 51 51 34 29 34 30 30 31 34 24 16 14 5 7 8 13 17 28 24 30 35 45 50 39 44 37 36 20 28 19 26 35 32 19 25
69 55 45 34 42 44 45 43 51 48 39 34 35 31 30 30 33 32 16 13 10 5 12 16 21 23 33 36 46 42 54 34 36 44 28 25 26 23 24 33 25 18 20
63 56 48 36 36 45 48 42 50 46 43 36 37 35 33 30 23 27 19 21 22 9 2 10 16 17 22 36 52 42 49 40 40 27 29 30 28 33 32 38 38 34 31
55 60 47 44 37 41 52 43 37 46 43 41 42 40 30 30 18 17 24 32 22 19 22 21 26 30 30 41 44 44 43 40 41 31 34 33 33 29 25 31 36 34 34
45 55 53 46 38 36 41 51 54 35 41 39 41 41 43 33 28 22 26 36 28 30 38 30 24 28 33 36 36 39 31 36 38 32 36 33 27 28 27 28 34 31 36
43 51 63 45 45 39 39 43 46 40 35 36 33 38 38 37 31 27 26 37 29 33 32 32 36 35 33 30 22 21 24 26 31 39 30 23 25 20 21 18 24 25 28
37 41 53 50 43 44 45 42 44 41 28 28 30 31 31 32 30 25 22 24 26 27 29 25 28 26 23 18 14 11 11 19 18 14 21 25 19 16 18 22 27 23 25
40 23 41 52 57 49 45 44 44 44 43 32 24 24 24 21 27 26 20 21 15 12 14 16 18 17 13 10 11 10 8 11 13 20 20 24 24 23 26 30 26 24 22
55 38 31 35 42 49 55 59 58 55 55 52 40 24 16 13 15 16 18 18 14 16 1 13 14 10 9 7 8 8 10 14 19 17 22 21 23 27 29 29 27 26 24
47 53 51 48 49 49 49 53 55 57 59 61 61 57 41 18 9 7 5 2 2 6 5 5 7 10 13 14 15 16 19 19 23 25 19 21 24 24 24 26 27 27 24
50 47 47 51 54 55 54 54 53 53 53 53 55 56 57 53 43 28 14 7 8 14 16 16 13 15 18 21 21 20 22 22 21 25 21 24 21 26 26 32 31 29 24
48 49 50 51 49 50 52 53 54 54 53 52 50 51 55 58 57 54 45 30 18 13 17 19 25 30 29 30 28 28 29 23 25 32 31 29 30 28 31 24 27 24 26
49 48 49 50 51 49 50 52 53 55 55 53 52 52 50 53 55 55 53 49 43 34 22 14 18 22 25 36 41 35 34 32 30 34 35 37 36 31 34 24 25 31 35
47 48 49 52 53 52 52 52 52 51 52 54 55 57 55 52 51 48 48 48 47 44 41 34 22 16 21 25 29 32 37 37 37 38 42 46 42 36 33 35 27 31 34
49 50 51 52 53 54 52 53 54 54 55 55 54 54 53 54 55 53 46 46 46 44 44 41 37 31 22 18 26 35 41 43 46 47 48 45 42 38 41 40 39 34 36
52 53 54 55 57 56 57 56 56 55 55 55 55 55 56 57 56 55 54 49 44 41 39 41 41 36 32 28 23 20 24 33 42 46 47 48 46 42 47 46 44 41 36
Wind_Direction_500mb
331 333 330 327 323 329 326 324 312 313 309 298 307 305 305 306 299 294 289 284 276 282 272 264 265 268 241 240 240 223 202 203 211 219 220 217 208 240 222 240 243 260 245
332 323 335 345 344 332 327 320 326 319 315 308 307 304 305 302 300 300 295 291 284 274 271 267 258 270 244 231 237 212 208 199 207 218 238 224 209 225 230 232 240 260 254
336 339 343 337 332 327 322 331 322 317 315 305 301 297 302 298 293 287 285 289 286 277 274 258 254 255 257 233 230 201 200 202 215 230 239 218 217 208 219 231 240 247 234
343 340 338 324 322 322 334 323 324 315 307 314 312 308 310 311 303 292 285 282 281 281 269 263 249 245 248 251 226 205 207 208 222 216 224 208 214 217 223 225 228 227 226
356 336 332 324 322 317 334 334 321 325 319 328 321 318 314 313 304 300 296 288 281 269 265 255 241 237 240 236 232 216 206 208 211 211 215 208 220 212 213 220 221 221 219
346 336 333 328 325 324 334 328 329 326 330 328 323 319 316 312 310 308 301 290 278 265 255 255 226 229 224 231 212 203 205 202 214 212 225 201 215 217 224 221 215 215 211
340 337 328 331 335 333 339 332 330 328 335 325 326 322 328 319 319 319 313 302 275 249 239 239 220 223 219 233 220 201 190 193 196 205 210 206 217 218 215 217 218 213 215
355 340 338 330 335 338 339 341 338 335 337 337 332 330 339 332 333 334 326 333 288 233 236 227 212 219 231 238 224 214 190 197 194 202 207 215 243 207 222 223 213 229 215
356 354 352 345 340 347 347 352 350 337 332 331 333 332 343 336 341 332 327 329 325 253 225 209 211 213 222 230 214 205 203 194 194 207 202 200 208 200 213 204 208 201 217
356 355 358 352 353 352 351 355 351 344 347 359 351 352 348 351 340 334 326 344 300 270 207 191 206 212 209 219 205 191 201 203 202 213 211 199 193 202 217 206 196 214 226
352 356 358 1 358 354 351 358 359 5 3 7 359 357 359 6 6 353 330 336 319 260 229 203 208 211 214 213 194 187 196 184 192 213 195 180 185 217 211 209 200 203 226
349 357 5 3 1 356 358 4 7 11 20 20 5 10 4 347 11 12 4 338 328 332 199 214 219 212 211 207 184 184 183 189 203 185 166 191 194 204 198 204 206 222 230
347 4 10 11 8 2 358 349 5 13 16 15 15 17 16 9 6 12 25 18 10 3 134 180 176 181 178 176 169 164 171 183 187 185 189 194 200 206 214 216 219 221 236
347 5 15 17 20 18 18 10 356 15 18 20 18 18 17 13 25 33 31 32 45 77 93 110 126 131 139 161 165 161 168 178 186 195 200 205 218 220 226 226 229 238 242
347 3 13 17 20 15 15 11 14 9 20 20 25 22 24 30 36 55 50 43 62 90 101 109 123 131 142 150 153 158 168 175 184 199 215 217 226 229 239 231 234 250 258
356 2 9 15 21 17 22 23 19 13 18 22 26 30 34 43 57 57 68 60 83 102 93 99 103 103 119 131 136 137 159 183 200 208 215 221 221 233 243 258 256 250 261
9 6 6 16 15 14 18 18 11 16 20 24 23 33 42 47 54 62 71 73 89 119 95 104 103 120 126 134 135 155 169 185 198 210 210 206 206 229 242 261 261 256 255
20 33 14 9 26 22 15 13 13 14 17 24 31 27 40 54 52 54 65 63 56 106 122 132 131 127 135 147 156 170 177 202 202 201 200 214 215 233 251 261 264 254 267
28 30 32 9 16 29 31 32 33 33 32 30 29 34 35 36 64 62 63 45 33 6 196 196 185 170 167 160 180 221 220 216 222 231 229 226 228 253 264 263 259 254 267
33 34 33 32 30 31 32 33 37 39 38 37 35 32 29 24 20 357 336 324 157 159 167 231 286 241 230 219 237 251 255 243 236 245 242 242 261 271 276 269 257 241 261
33 33 35 37 38 38 35 34 33 33 35 37 38 41 38 38 36 27 4 318 267 253 244 236 229 217 232 238 246 260 267 251 239 236 234 249 269 289 274 274 257 239 253
35 36 36 37 39 39 40 40 39 37 35 35 36 35 35 38 37 36 33 24 3 305 265 257 252 245 245 246 248 254 262 265 244 238 238 258 278 286 278 270 256 236 245
31 33 35 35 36 36 39 40 39 37 37 37 36 36 36 32 28 31 32 31 29 23 7 316 269 263 265 249 245 253 256 254 256 254 256 264 275 277 286 276 244 246 244
35 35 33 32 32 33 32 33 36 37 37 36 35 36 34 33 29 29 26 28 30 30 28 22 5 321 276 267 267 261 253 252 253 257 263 268 272 274 269 269 261 251 240
35 35 37 36 33 32 30 30 29 28 28 28 29 31 31 32 32 31 27 26 23 22 24 25 23 17 356 320 275 266 263 263 259 257 259 263 267 268 266 268 268 256 249
40 38 37 36 36 34 31 28 28 27 26 24 23 23 22 22 23 25 26 25 21 19 15 11 13 15 14 4 348 321 285 265 258 259 258 259 262 262 262 262 259 258 250
Wind_Speed_850mb
42 39 35 28 37 39 48 44 51 48 53 45 44 49 48 44 44 47 49 47 44 45 46 49 59 46 62 52 54 65 65 45 40 43 43 34 28 37 33 40 41 33 38
39 33 32 34 35 44 46 51 45 47 47 42 38 43 41 45 45 42 42 43 46 50 52 48 47 40 57 43 46 64 66 46 40 48 40 35 35 31 34 30 32 24 27
37 31 36 34 40 46 51 44 48 45 46 44 46 46 48 43 45 43 41 43 44 45 44 49 44 45 41 55 26 53 43 44 46 45 43 45 29 32 39 38 32 25 30
37 37 43 34 42 50 57 48 54 41 44 50 40 39 42 39 42 44 43 41 43 42 42 41 45 41 43 43 45 32 42 45 40 49 44 53 31 39 40 38 35 29 24
36 36 41 38 42 53 65 56 50 46 45 37 34 39 38 37 40 39 42 45 44 44 39 40 44 42 37 38 44 48 33 38 43 46 41 58 31 32 39 36 33 30 34
42 36 40 41 49 57 63 55 54 46 40 37 37 38 37 40 39 41 43 42 42 37 36 32 35 36 36 39 46 44 51 41 39 41 37 50 28 36 41 36 36 34 39
31 39 43 41 54 56 61 56 51 48 47 38 37 40 39 38 36 37 34 33 33 29 28 25 31 35 34 32 49 48 50 48 37 36 44 43 23 32 37 34 32 30 34
50 39 40 43 52 53 61 50 43 40 42 37 38 41 36 33 31 31 23 19 9 19 24 31 31 31 33 32 35 56 45 54 40 37 49 51 23 34 38 31 26 26 30
71 54 36 44 55 55 56 51 47 42 41 40 37 38 32 29 27 27 24 11 7 10 16 26 31 30 33 28 29 48 54 52 43 40 51 22 31 30 36 35 28 24 23
77 55 40 38 46 50 54 51 57 43 39 40 33 29 30 29 27 25 22 15 6 3 9 14 26 29 30 27 34 41 52 56 42 44 62 24 31 18 28 41 27 26 33
71 53 42 34 45 49 51 49 51 51 34 29 34 30 30 31 34 24 16 14 5 7 8 13 17 28 24 30 35 45 50 39 44 37 36 20 28 19 26 35 32 19 25
69 55 45 34 42 44 45 43 51 48 39 34 35 31 30 30 33 32 16 13 10 5 12 16 21 23 33 36 46 42 54 34 36 44 28 25 26 23 24 33 25 18 20
63 56 48 36 36 45 48 42 50 46 43 36 37 35 33 30 23 27 19 21 22 9 2 10 16 17 22 36 52 42 49 40 40 27 29 30 28 33 32 38 38 34 31
55 60 47 44 37 41 52 43 37 46 43 41 42 40 30 30 18 17 24 32 22 19 22 21 26 30 30 41 44 44 43 40 41 31 34 33 33 29 25 31 36 34 34
45 55 53 46 38 36 41 51 54 35 41 39 41 41 43 33 28 22 26 36 28 30 38 30 24 28 33 36 36 39 31 36 38 32 36 33 27 28 27 28 34 31 36
43 51 63 45 45 39 39 43 46 40 35 36 33 38 38 37 31 27 26 37 29 33 32 32 36 35 33 30 22 21 24 26 31 39 30 23 25 20 21 18 24 25 28
37 41 53 50 43 44 45 42 44 41 28 28 30 31 31 32 30 25 22 24 26 27 29 25 28 26 23 18 14 11 11 19 18 14 21 25 19 16 18 22 27 23 25
40 23 41 52 57 49 45 44 44 44 43 32 24 24 24 21 27 26 20 21 15 12 14 16 18 17 13 10 11 10 8 11 13 20 20 24 24 23 26 30 26 24 22
55 38 31 35 42 49 55 59 58 55 55 52 40 24 16 13 15 16 18 18 14 16 1 13 14 10 9 7 8 8 10 14 19 17 22 21 23 27 29 29 27 26 24
47 53 51 48 49 49 49 53 55 57 59 61 61 57 41 18 9 7 5 2 2 6 5 5 7 10 13 14 15 16 19 19 23 25 19 21 24 24 24 26 27 27 24
50 47 47 51 54 55 54 54 53 53 53 53 55 56 57 53 43 28 14 7 8 14 16 16 13 15 18 21 21 20 22 22 21 25 21 24 21 26 26 32 31 29 24
48 49 50 51 49 50 52 53 54 54 53 52 50 51 55 58 57 54 45 30 18 13 17 19 25 30 29 30 28 28 29 23 25 32 31 29 30 28 31 24 27 24 26
49 48 49 50 51 49 50 52 53 55 55 53 52 52 50 53 55 55 53 49 43 34 22 14 18 22 25 36 41 35 34 32 30 34 35 37 36 31 34 24 25 31 35
47 48 49 52 53 52 52 52 52 51 52 54 55 57 55 52 51 48 48 48 47 44 41 34 22 16 21 25 29 32 37 37 37 38 42 46 42 36 33 35 27 31 34
49 50 51 52 53 54 52 53 54 54 55 55 54 54 53 54 55 53 46 46 46 44 44 41 37 31 22 18 26 35 41 43 46 47 48 45 42 38 41 40 39 34 36
52 53 54 55 57 56 57 56 56 55 55 55 55 55 56 57 56 55 54 49 44 41 39 41 41 36 32 28 23 20 24 33 42 46 47 48 46 42 47 46 44 41 36
Wind_Direction_850mb
331 333 330 327 323 329 326 324 312 313 309 298 307 305 305 306 299 294 289 284 276 282 272 264 265 268 241 240 240 223 202 203 211 219 220 217 208 240 222 240 243 260 245
332 323 335 345 344 332 327 320 326 319 315 308 307 304 305 302 300 300 295 291 284 274 271 267 258 270 244 231 237 212 208 199 207 218 238 224 209 225 230 232 240 260 254
336 339 343 337 332 327 322 331 322 317 315 305 301 297 302 298 293 287 285 289 286 277 274 258 254 255 257 233 230 201 200 202 215 230 239 218 217 208 219 231 240 247 234
343 340 338 324 322 322 334 323 324 315 307 314 312 308 310 311 303 292 285 282 281 281 269 263 249 245 248 251 226 205 207 208 222 216 224 208 214 217 223 225 228 227 226
356 336 332 324 322 317 334 334 321 325 319 328 321 318 314 313 304 300 296 288 281 269 265 255 241 237 240 236 232 216 206 208 211 211 215 208 220 212 213 220 221 221 219
346 336 333 328 325 324 334 328 329 326 330 328 323 319 316 312 310 308 301 290 278 265 255 255 226 229 224 231 212 203 205 202 214 212 225 201 215 217 224 221 215 215 211
340 337 328 331 335 333 339 332 330 328 335 325 326 322 328 319 319 319 313 302 275 249 239 239 220 223 219 233 220 201 190 193 196 205 210 206 217 218 215 217 218 213 215
355 340 338 330 335 338 339 341 338 335 337 337 332 330 339 332 333 334 326 333 288 233 236 227 212 219 231 238 224 214 190 197 194 202 207 215 243 207 222 223 213 229 215
356 354 352 345 340 347 347 352 350 337 332 331 333 332 343 336 341 332 327 329 325 253 225 209 211 213 222 230 214 205 203 194 194 207 202 200 208 200 213 204 208 201 217
356 355 358 352 353 352 351 355 351 344 347 359 351 352 348 351 340 334 326 344 300 270 207 191 206 212 209 219 205 191 201 203 202 213 211 199 193 202 217 206 196 214 226
352 356 358 1 358 354 351 358 359 5 3 7 359 357 359 6 6 353 330 336 319 260 229 203 208 211 214 213 194 187 196 184 192 213 195 180 185 217 211 209 200 203 226
349 357 5 3 1 356 358 4 7 11 20 20 5 10 4 347 11 12 4 338 328 332 199 214 219 212 211 207 184 184 183 189 203 185 166 191 194 204 198 204 206 222 230
347 4 10 11 8 2 358 349 5 13 16 15 15 17 16 9 6 12 25 18 10 3 134 180 176 181 178 176 169 164 171 183 187 185 189 194 200 206 214 216 219 221 236
347 5 15 17 20 18 18 10 356 15 18 20 18 18 17 13 25 33 31 32 45 77 93 110 126 131 139 161 165 161 168 178 186 195 200 205 218 220 226 226 229 238 242
347 3 13 17 20 15 15 11 14 9 20 20 25 22 24 30 36 55 50 43 62 90 101 109 123 131 142 150 153 158 168 175 184 199 215 217 226 229 239 231 234 250 258
356 2 9 15 21 17 22 23 19 13 18 22 26 30 34 43 57 57 68 60 83 102 93 99 103 103 119 131 136 137 159 183 200 208 215 221 221 233 243 258 256 250 261
9 6 6 16 15 14 18 18 11 16 20 24 23 33 42 47 54 62 71 73 89 119 95 104 103 120 126 134 135 155 169 185 198 210 210 206 206 229 242 261 261 256 255
20 33 14 9 26 22 15 13 13 14 17 24 31 27 40 54 52 54 65 63 56 106 122 132 131 127 135 147 156 170 177 202 202 201 200 214 215 233 251 261 264 254 267
28 30 32 9 16 29 31 32 33 33 32 30 29 34 35 36 64 62 63 45 33 6 196 196 185 170 167 160 180 221 220 216 222 231 229 226 228 253 264 263 259 254 267
33 34 33 32 30 31 32 33 37 39 38 37 35 32 29 24 20 357 336 324 157 159 167 231 286 241 230 219 237 251 255 243 236 245 242 242 261 271 276 269 257 241 261
33 33 35 37 38 38 35 34 33 33 35 37 38 41 38 38 36 27 4 318 267 253 244 236 229 217 232 238 246 260 267 251 239 236 234 249 269 289 274 274 257 239 253
35 36 36 37 39 39 40 40 39 37 35 35 36 35 35 38 37 36 33 24 3 305 265 257 252 245 245 246 248 254 262 265 244 238 238 258 278 286 278 270 256 236 245
31 33 35 35 36 36 39 40 39 37 37 37 36 36 36 32 28 31 32 31 29 23 7 316 269 263 265 249 245 253 256 254 256 254 256 264 275 277 286 276 244 246 244
35 35 33 32 32 33 32 33 36 37 37 36 35 36 34 33 29 29 26 28 30 30 28 22 5 321 276 267 267 261 253 252 253 257 263 268 272 274 269 269 261 251 240
35 35 37 36 33 32 30 30 29 28 28 28 29 31 31 32 32 31 27 26 23 22 24 25 23 17 356 320 275 266 263 263 259 257 259 263 267 268 266 268 268 256 249
40 38 37 36 36 34 31 28 28 27 26 24 23 23 22 22 23 25 26 25 21 19 15 11 13 15 14 4 348 321 285 265 258 259 258 259 262 262 262 262 259 258 250